Tiempo cada hora Bartoszewo

Hoy, 6 Marzo, Sábado

Tiempo Temperatura Precipitaciones Viento Presión Humedad
00:00 -2°C° 0 mm 3 mps 770 mmHg 75%
01:00 -2°C° 0 mm 3 mps 770 mmHg 76%
02:00 -2°C° 0 mm 3 mps 770 mmHg 75%
03:00 -2°C° 0 mm 2 mps 770 mmHg 74%
04:00 -2°C° 0 mm 2 mps 770 mmHg 73%
05:00 -4°C° 0 mm 3 mps 770 mmHg 72%
06:00 -4°C° 0 mm 3 mps 770 mmHg 71%
07:00 -4°C° 0 mm 3 mps 770 mmHg 69%
08:00 -1°C° 0 mm 3 mps 770 mmHg 66%
09:00 -1°C° 0 mm 4 mps 770 mmHg 63%
10:00 +1°C° 0 mm 4 mps 770 mmHg 60%
11:00 +2°C° 0 mm 5 mps 769 mmHg 58%
12:00 +3°C° 0 mm 5 mps 769 mmHg 56%
13:00 +5°C° 0 mm 5 mps 769 mmHg 54%
14:00 +3°C° 0 mm 5 mps 768 mmHg 63%
15:00 +2°C° 0 mm 5 mps 768 mmHg 72%
16:00 +2°C° 0 mm 5 mps 768 mmHg 81%
17:00 +2°C° 0 mm 5 mps 767 mmHg 81%
18:00 +1°C° 0 mm 5 mps 767 mmHg 82%
19:00 +1°C° 0 mm 4 mps 767 mmHg 82%
20:00 +1°C° 0 mm 5 mps 767 mmHg 80%
21:00 +1°C° 0 mm 5 mps 767 mmHg 77%
22:00 +1°C° 0 mm 6 mps 767 mmHg 74%
23:00 -1°C° 0 mm 6 mps 766 mmHg 75%

Mañana, 7 Marzo, Domingo

Tiempo Temperatura Precipitaciones Viento Presión Humedad
00:00 -2°C° 0 mm 6 mps 766 mmHg 76%
01:00 -2°C° 0 mm 6 mps 766 mmHg 77%
02:00 -2°C° 0 mm 6 mps 765 mmHg 78%
03:00 -3°C° 0 mm 6 mps 765 mmHg 80%
04:00 -3°C° 0 mm 6 mps 764 mmHg 82%
05:00 -3°C° 0 mm 6 mps 764 mmHg 82%
06:00 -3°C° 0 mm 6 mps 764 mmHg 82%
07:00 -2°C° 0 mm 6 mps 764 mmHg 82%
08:00 -2°C° 0 mm 6 mps 764 mmHg 79%
09:00 -1°C° 0 mm 7 mps 763 mmHg 76%
10:00 0°C° 0 mm 7 mps 763 mmHg 73%
11:00 0°C° 0 mm 7 mps 763 mmHg 74%
12:00 +2°C° 0 mm 7 mps 763 mmHg 74%
13:00 +2°C° 0 mm 7 mps 763 mmHg 75%
14:00 +2°C° 0 mm 7 mps 762 mmHg 75%
15:00 +2°C° 0 mm 6 mps 762 mmHg 75%
16:00 +2°C° 0 mm 6 mps 761 mmHg 76%
17:00 +1°C° 0.2 mm 6 mps 761 mmHg 82%
18:00 +1°C° 0.2 mm 5 mps 761 mmHg 88%
19:00 0°C° 0.2 mm 5 mps 761 mmHg 94%
20:00 0°C° 0.2 mm 4 mps 762 mmHg 94%
21:00 0°C° 0.2 mm 4 mps 762 mmHg 94%
22:00 0°C° 0.2 mm 4 mps 762 mmHg 94%
23:00 0°C° 0 mm 3 mps 762 mmHg 94%

Pasado mañana, 8 Marzo, Lunes

Tiempo Temperatura Precipitaciones Viento Presión Humedad
00:00 +1°C° 0 mm 2 mps 762 mmHg 94%
01:00 -1°C° 0 mm 2 mps 762 mmHg 94%
02:00 -1°C° 0 mm 2 mps 762 mmHg 90%
03:00 0°C° 0 mm 1 mps 762 mmHg 87%
04:00 0°C° 0 mm 1 mps 762 mmHg 83%
05:00 0°C° 0 mm 1 mps 762 mmHg 81%
06:00 0°C° 0 mm 1 mps 763 mmHg 79%
07:00 0°C° 0 mm 1 mps 763 mmHg 76%
08:00 -1°C° 0 mm 2 mps 763 mmHg 68%
09:00 +2°C° 0 mm 2 mps 764 mmHg 60%
10:00 +3°C° 0 mm 2 mps 764 mmHg 52%
11:00 +3°C° 0 mm 2 mps 764 mmHg 49%
12:00 +4°C° 0 mm 2 mps 765 mmHg 46%
13:00 +4°C° 0 mm 2 mps 765 mmHg 43%
14:00 +4°C° 0 mm 2 mps 765 mmHg 44%
15:00 +4°C° 0 mm 2 mps 765 mmHg 46%
16:00 +4°C° 0 mm 2 mps 764 mmHg 48%
17:00 +1°C° 0 mm 3 mps 765 mmHg 56%
18:00 0°C° 0 mm 3 mps 765 mmHg 64%
19:00 -2°C° 0 mm 3 mps 765 mmHg 72%
20:00 -2°C° 0 mm 3 mps 765 mmHg 73%
21:00 -2°C° 0 mm 3 mps 765 mmHg 73%
22:00 -2°C° 0 mm 2 mps 765 mmHg 74%
23:00 -2°C° 0 mm 2 mps 765 mmHg 75%

9 Marzo, Martes

Tiempo Temperatura Precipitaciones Viento Presión Humedad
00:00 -2°C° 0 mm 2 mps 765 mmHg 75%
01:00 -2°C° 0 mm 2 mps 765 mmHg 75%
02:00 -2°C° 0 mm 2 mps 765 mmHg 75%
03:00 -2°C° 0 mm 2 mps 764 mmHg 75%
04:00 -2°C° 0 mm 3 mps 764 mmHg 74%
05:00 -2°C° 0 mm 3 mps 764 mmHg 74%
06:00 -2°C° 0 mm 2 mps 764 mmHg 74%
07:00 -2°C° 0 mm 2 mps 764 mmHg 74%
08:00 -1°C° 0 mm 3 mps 764 mmHg 69%
09:00 +1°C° 0 mm 3 mps 764 mmHg 65%
10:00 +2°C° 0 mm 3 mps 764 mmHg 60%
11:00 +3°C° 0 mm 3 mps 764 mmHg 63%
12:00 +3°C° 0 mm 4 mps 763 mmHg 66%
13:00 +4°C° 0 mm 4 mps 763 mmHg 69%
14:00 +4°C° 0 mm 4 mps 763 mmHg 74%
15:00 +3°C° 0 mm 4 mps 763 mmHg 79%
16:00 +2°C° 0 mm 3 mps 762 mmHg 84%
17:00 +2°C° 0 mm 3 mps 762 mmHg 87%
18:00 +2°C° 0 mm 3 mps 762 mmHg 90%
19:00 +2°C° 0 mm 3 mps 762 mmHg 93%
20:00 +1°C° 0 mm 4 mps 762 mmHg 94%
21:00 +1°C° 0 mm 4 mps 762 mmHg 94%
22:00 +1°C° 0 mm 4 mps 762 mmHg 94%
23:00 +1°C° 0 mm 4 mps 762 mmHg 93%

10 Marzo, Miércoles

Tiempo Temperatura Precipitaciones Viento Presión Humedad
00:00 +1°C° 0 mm 4 mps 761 mmHg 93%
01:00 +1°C° 0 mm 4 mps 761 mmHg 92%
02:00 +1°C° 0.1 mm 4 mps 761 mmHg 92%
03:00 +3°C° 0.1 mm 4 mps 760 mmHg 92%
04:00 +3°C° 0.1 mm 4 mps 760 mmHg 92%
05:00 +1°C° 0 mm 4 mps 759 mmHg 92%
06:00 +1°C° 0 mm 4 mps 759 mmHg 92%
07:00 0°C° 0 mm 4 mps 759 mmHg 92%
08:00 +1°C° 0 mm 5 mps 758 mmHg 86%
09:00 +2°C° 0 mm 5 mps 758 mmHg 80%
10:00 +3°C° 0 mm 6 mps 757 mmHg 75%
11:00 +4°C° 0 mm 6 mps 757 mmHg 72%
12:00 +5°C° 0 mm 7 mps 756 mmHg 70%
13:00 +5°C° 0 mm 7 mps 755 mmHg 68%
14:00 +5°C° 0.2 mm 7 mps 754 mmHg 74%
15:00 +4°C° 0.2 mm 8 mps 753 mmHg 80%
16:00 +2°C° 0.2 mm 8 mps 752 mmHg 86%
17:00 +2°C° 0.5 mm 8 mps 751 mmHg 87%
18:00 +2°C° 0.5 mm 8 mps 751 mmHg 88%
19:00 +4°C° 0.5 mm 8 mps 750 mmHg 89%
20:00 +4°C° 0.5 mm 8 mps 749 mmHg 89%
21:00 +4°C° 0.5 mm 8 mps 748 mmHg 89%
22:00 +5°C° 0.5 mm 8 mps 748 mmHg 89%
23:00 +5°C° 0.6 mm 8 mps 747 mmHg 89%

11 Marzo, Jueves

Tiempo Temperatura Precipitaciones Viento Presión Humedad
00:00 +5°C° 0.6 mm 8 mps 746 mmHg 89%
01:00 +6°C° 0.6 mm 8 mps 746 mmHg 89%
02:00 +6°C° 0.3 mm 8 mps 745 mmHg 88%
03:00 +6°C° 0.3 mm 9 mps 744 mmHg 87%
04:00 +7°C° 0.3 mm 9 mps 743 mmHg 87%
05:00 +7°C° 0 mm 9 mps 743 mmHg 85%
06:00 +7°C° 0 mm 9 mps 742 mmHg 84%
07:00 +8°C° 0 mm 9 mps 742 mmHg 83%
08:00 +8°C° 0.1 mm 9 mps 741 mmHg 80%
09:00 +8°C° 0.1 mm 10 mps 741 mmHg 78%
10:00 +8°C° 0.1 mm 11 mps 740 mmHg 76%
11:00 +8°C° 0.4 mm 11 mps 740 mmHg 70%
12:00 +8°C° 0.4 mm 12 mps 740 mmHg 65%
13:00 +8°C° 0.4 mm 13 mps 740 mmHg 59%
14:00 +8°C° 0.1 mm 13 mps 740 mmHg 63%
15:00 +7°C° 0.1 mm 12 mps 740 mmHg 66%
16:00 +5°C° 0.1 mm 12 mps 740 mmHg 70%
17:00 +6°C° 0.1 mm 11 mps 741 mmHg 73%
18:00 +4°C° 0.1 mm 11 mps 741 mmHg 76%
19:00 +5°C° 0.1 mm 10 mps 742 mmHg 78%
20:00 +5°C° 0.2 mm 10 mps 743 mmHg 78%
21:00 +3°C° 0.2 mm 10 mps 743 mmHg 77%
22:00 +3°C° 0.2 mm 10 mps 744 mmHg 76%
23:00 +3°C° 0.1 mm 10 mps 744 mmHg 75%
Mostrar más

Necesitamos Su Consentimiento

Meteoprog y nuestros Proveedores de Servicios pueden almacenar y acceder a sus datos personales como cookies, identificadores de dispositivo u otras tecnologías similares de su dispositivo y procesar dichos datos para personalizar contenido y anuncios, además de ofrecer funciones de redes sociales y analizar el tráfico.

  • Almacenar y/o acceder a información en su dispositivo

    Se puede almacenar o acceder a cookies, identificadores de dispositivo u otra información de su dispositivo para los fines anteriormente indicados.

  • Anuncios y contenido personalizados, medición de anuncios y contenido, percepciones del público, y desarrollo de productos

    Los anuncios y el contenido pueden personalizarse en base a su perfil. Se pueden añadir más datos para personalizar mejor los anuncios y contenidos. Se puede medir el rendimiento de los anuncios y contenidos. Se puede obtener la percepción sobre el público que ha visto los anuncios y contenidos. Dichos datos pueden usarse para desarrollar o mejorar la experiencia del usuario, sistemas y software.

Al hacer clic en ‘Estoy De Acuerdo’ usted permitirá el uso de las cookies, identificadores de dispositivo, balizas web u otras tecnologías similares indicadas. Su configuración puede cambiarse desde el navegador de su dispositivo.

Para ciertos fines, los intereses legítimos pueden ser considerados por encima del consentimiento. Puede leer más sobre ello en nuestra Política de Privacidad y Cookies.